Location: Invercargill
(46.4000°S, 168.3500°E)
Time: 19:41:16
(UTC+12:00)

Cosmos 1553 Rocket - Pass Details

Date: 14 May 2021
Orbit: 942 x 1007 km, 82.9° (Epoch: 14 June)

Event Time Altitude Azimuth Distance (km) Brightness Sun altitude
Rises 18:42:01 0° 185° (S) 3,668 6.9 -13.3°
Reaches altitude 10° 18:44:40 10° 179° (S) 2,709 6.2 -13.7°
Maximum altitude 18:50:36 47° 105° (ESE) 1,246 4.1 -14.7°
Drops below altitude 10° 18:56:28 10° 31° (NNE) 2,668 6.1 -15.7°
Sets 18:59:02 0° 25° (NNE) 3,606 6.8 -16.1°
